This is the latest recevied weather packets stored in our database for station/object MB7UUE. If no packets are shown the sender has not sent any weather packets the latest 10 day(s).
| Time | Temp. | Humidity | Pressure | Rain* | Wind** | Luminosity | Snow |
|---|---|---|---|---|---|---|---|
| 1788454941 | 25° C | 59% | 1014.8 hPa | 0 mm | - | - | - |
| 1788453791 | 25.56° C | 59% | 1014.9 hPa | 0 mm | - | - | - |
| 1788453113 | 26.11° C | 56% | 1015.2 hPa | 0 mm | - | - | - |
| 1788452652 | 26.11° C | 56% | 1015.2 hPa | 0 mm | - | - | - |
| 1788451511 | 26.11° C | 57% | 1015.1 hPa | 0 mm | - | - | - |
| 1788450371 | 26.67° C | 50% | 1015.2 hPa | 0 mm | - | - | - |
| 1788449232 | 26.67° C | 49% | 1015.3 hPa | 0 mm | - | - | - |
| 1788448092 | 26.67° C | 48% | 1015.5 hPa | 0 mm | - | - | - |
| 1788446951 | 26.11° C | 50% | 1015.6 hPa | 0 mm | - | - | - |
| 1788445811 | 26.11° C | 50% | 1015.7 hPa | 0 mm | - | - | - |
| 1788444672 | 26.11° C | 51% | 1015.8 hPa | 0 mm | - | - | - |
| 1788443532 | 26.67° C | 51% | 1015.9 hPa | 0 mm | - | - | - |
| 1788442393 | 25.56° C | 53% | 1016.1 hPa | 0 mm | - | - | - |
| 1788441252 | 25.56° C | 52% | 1016.4 hPa | 0 mm | - | - | - |
| 1788440111 | 25° C | 54% | 1016.4 hPa | 0 mm | - | - | - |
| 1788438972 | 25° C | 56% | 1016.7 hPa | 0 mm | - | - | - |
| 1788437831 | 25° C | 56% | 1016.8 hPa | 0 mm | - | - | - |
| 1788436691 | 24.44° C | 56% | 1016.7 hPa | 0 mm | - | - | - |
| 1788435552 | 24.44° C | 56% | 1016.7 hPa | 0 mm | - | - | - |
| 1788434411 | 23.89° C | 59% | 1016.7 hPa | 0 mm | - | - | - |
| 1788433271 | 23.33° C | 59% | 1016.9 hPa | 0 mm | - | - | - |
| 1788432131 | 23.33° C | 59% | 1016.9 hPa | 0 mm | - | - | - |
| 1788430993 | 23.33° C | 69% | 1017.1 hPa | 0 mm | - | - | - |
| 1788429851 | 23.33° C | 69% | 1017 hPa | 0 mm | - | - | - |
| 1788428712 | 22.78° C | 69% | 1017 hPa | 0 mm | - | - | - |
* Rain latest hour (hover to see other rain measurements)
** Current wind speed in m/s (hover to see current wind gust speed)